| time (UTC) | temp C | wind direction | speed KPH | gust KPH | rain 1hr cm | rain 24hr cm | rain mn cm | humidity % | barometer mb |
| 20260508021552 | 8 | 225 | 0.0 | 3.2 | 0.00 | 0.00 | 0.00 | 47 | 1009.2 |
| 20260508020048 | 8 | 235 | 3.2 | 4.8 | 0.00 | 0.00 | 0.00 | 45 | 1009.0 |
| 20260508014544 | 9 | 219 | 3.2 | 4.8 | 0.00 | 0.00 | 0.00 | 43 | 1008.9 |
| 20260508013036 | 10 | 221 | 1.6 | 4.8 | 0.00 | 0.00 | 0.00 | 41 | 1008.8 |
| 20260508011532 | 11 | 292 | 0.0 | 1.6 | 0.00 | 0.00 | 0.00 | 39 | 1008.8 |
| 20260508010033 | 13 | 292 | 0.0 | 3.2 | 0.00 | 0.00 | 0.00 | 28 | 1008.7 |
| 20260508004529 | 13 | 348 | 0.0 | 3.2 | 0.00 | 0.00 | 0.00 | 26 | 1008.6 |
| 20260508003058 | 13 | 355 | 1.6 | 8.0 | 0.00 | 0.00 | 0.00 | 26 | 1008.8 |
| 20260508001556 | 13 | 308 | 1.6 | 11.3 | 0.00 | 0.00 | 0.00 | 26 | 1008.7 |
| 20260508000024 | 13 | 336 | 3.2 | 11.3 | 0.00 | 0.00 | 0.00 | 24 | 1009.0 |
| 20260507234534 | 13 | 20 | 6.4 | 16.1 | 0.00 | 0.00 | 0.00 | 24 | 1009.0 |
| 20260507233020 | 16 | 355 | 1.6 | 9.7 | 0.00 | 0.00 | 0.00 | 23 | 1009.0 |
| 20260507231519 | 14 | 326 | 4.8 | 14.5 | 0.00 | 0.00 | 0.00 | 25 | 1009.1 |
| 20260507230018 | 14 | 350 | 6.4 | 16.1 | 0.00 | 0.00 | 0.00 | 23 | 1009.0 |
| 20260507224522 | 14 | 313 | 8.0 | 19.3 | 0.00 | 0.00 | 0.00 | 23 | 1009.1 |
| 20260507223013 | 15 | 290 | 4.8 | 12.9 | 0.00 | 0.00 | 0.00 | 23 | 1009.2 |
| 20260507221513 | 14 | 322 | 6.4 | 19.3 | 0.00 | 0.00 | 0.00 | 23 | 1009.3 |
| 20260507220012 | 15 | 355 | 6.4 | 16.1 | 0.00 | 0.00 | 0.00 | 23 | 1009.3 |
| 20260507214521 | 16 | 335 | 3.2 | 9.7 | 0.00 | 0.00 | 0.00 | 21 | 1009.2 |
| 20260507213005 | 15 | 317 | 8.0 | 17.7 | 0.00 | 0.00 | 0.00 | 23 | 1009.4 |
| 20260507211506 | 14 | 351 | 6.4 | 19.3 | 0.00 | 0.00 | 0.00 | 23 | 1009.3 |
| 20260507210002 | 16 | 104 | 3.2 | 20.9 | 0.00 | 0.00 | 0.00 | 23 | 1009.1 |
| 20260507204559 | 14 | 323 | 9.7 | 25.7 | 0.00 | 0.00 | 0.00 | 23 | 1009.6 |
| 20260507203057 | 15 | 344 | 9.7 | 25.7 | 0.00 | 0.00 | 0.00 | 23 | 1009.7 |
| 20260507201603 | 14 | 85 | 4.8 | 17.7 | 0.00 | 0.00 | 0.00 | 29 | 1009.9 |
| 20260507200046 | 13 | 17 | 4.8 | 19.3 | 0.00 | 0.00 | 0.00 | 29 | 1010.1 |
| 20260507194545 | 13 | 87 | 4.8 | 19.3 | 0.00 | 0.00 | 0.00 | 29 | 1010.1 |
| 20260507193051 | 13 | 26 | 11.3 | 20.9 | 0.00 | 0.00 | 0.00 | 24 | 1010.2 |
| 20260507191540 | 13 | 35 | 3.2 | 29.0 | 0.00 | 0.00 | 0.00 | 26 | 1010.2 |
| 20260507190037 | 13 | 80 | 9.7 | 20.9 | 0.00 | 0.00 | 0.00 | 25 | 1010.4 |
| 20260507184535 | 13 | 111 | 14.5 | 27.4 | 0.00 | 0.00 | 0.00 | 28 | 1010.4 |
| 20260507183034 | 12 | 74 | 8.0 | 25.7 | 0.00 | 0.00 | 0.00 | 30 | 1010.4 |
| 20260507181526 | 12 | 83 | 16.1 | 29.0 | 0.00 | 0.00 | 0.00 | 28 | 1010.6 |
| 20260507180022 | 12 | 161 | 9.7 | 22.5 | 0.00 | 0.00 | 0.00 | 30 | 1010.8 |
| 20260507174517 | 12 | 77 | 11.3 | 25.7 | 0.00 | 0.00 | 0.00 | 30 | 1010.9 |
| 20260507173025 | 12 | 90 | 4.8 | 19.3 | 0.00 | 0.00 | 0.00 | 29 | 1011.2 |
| 20260507171503 | 12 | 56 | 8.0 | 22.5 | 0.00 | 0.00 | 0.00 | 31 | 1011.3 |
| 20260507170057 | 11 | 30 | 8.0 | 19.3 | 0.00 | 0.00 | 0.00 | 30 | 1011.3 |
| 20260507164552 | 10 | 165 | 8.0 | 22.5 | 0.00 | 0.00 | 0.00 | 31 | 1011.5 |
| 20260507163044 | 11 | 171 | 8.0 | 22.5 | 0.00 | 0.00 | 0.00 | 34 | 1011.6 |
| 20260507161533 | 11 | 88 | 9.7 | 22.5 | 0.00 | 0.00 | 0.00 | 35 | 1011.8 |
| 20260507160029 | 11 | 346 | 6.4 | 20.9 | 0.00 | 0.00 | 0.00 | 39 | 1011.8 |
| 20260507154528 | 10 | 47 | 6.4 | 20.9 | 0.00 | 0.00 | 0.00 | 42 | 1011.9 |
| 20260507153022 | 10 | 51 | 4.8 | 19.3 | 0.00 | 0.00 | 0.00 | 42 | 1011.9 |
| 20260507151517 | 8 | 88 | 6.4 | 16.1 | 0.00 | 0.00 | 0.00 | 43 | 1012.1 |
| 20260507150013 | 9 | 346 | 6.4 | 19.3 | 0.00 | 0.00 | 0.00 | 45 | 1012.2 |
| 20260507144511 | 8 | 67 | 6.4 | 19.3 | 0.00 | 0.00 | 0.00 | 46 | 1012.2 |
| 20260507143006 | 8 | 323 | 8.0 | 16.1 | 0.00 | 0.00 | 0.00 | 49 | 1012.5 |
| 20260507141623 | 7 | 320 | 4.8 | 12.9 | 0.00 | 0.00 | 0.00 | 52 | 1012.7 |
| 20260507140055 | 7 | 17 | 3.2 | 8.0 | 0.00 | 0.00 | 0.00 | 54 | 1012.8 |
| 20260507134552 | 8 | 355 | 1.6 | 4.8 | 0.00 | 0.00 | 0.00 | 50 | 1012.9 |
| 20260507133051 | 7 | 91 | 4.8 | 8.0 | 0.00 | 0.00 | 0.00 | 56 | 1012.8 |
| 20260507131548 | 5 | 65 | 3.2 | 8.0 | 0.00 | 0.00 | 0.00 | 56 | 1012.9 |
| 20260507130058 | 4 | 347 | 3.2 | 9.7 | 0.00 | 0.00 | 0.00 | 59 | 1013.1 |
| 20260507124548 | 6 | 224 | 0.0 | 3.2 | 0.00 | 0.00 | 0.00 | 59 | 1013.1 |
| 20260507123049 | 5 | 231 | 0.0 | 1.6 | 0.00 | 0.00 | 0.00 | 67 | 1013.2 |
| 20260507121546 | 2 | 206 | 1.6 | 4.8 | 0.00 | 0.00 | 0.00 | 72 | 1013.1 |
| 20260507120046 | 2 | 197 | 0.0 | 3.2 | 0.00 | 0.00 | 0.00 | 73 | 1013.1 |
| 20260507114542 | 1 | 197 | 0.0 | 1.6 | 0.00 | 0.00 | 0.00 | 74 | 1013.0 |
| 20260507113042 | 1 | 197 | 0.0 | 1.6 | 0.00 | 0.00 | 0.00 | 71 | 1012.9 |
| 20260507111544 | 1 | 197 | 0.0 | 1.6 | 0.00 | 0.00 | 0.00 | 75 | 1012.8 |
| 20260507110039 | 1 | 197 | 0.0 | 1.6 | 0.00 | 0.00 | 0.00 | 75 | 1012.8 |
| 20260507104537 | 1 | 197 | 0.0 | 1.6 | 0.00 | 0.00 | 0.00 | 70 | 1012.7 |
| 20260507103040 | 1 | 197 | 0.0 | 3.2 | 0.00 | 0.00 | 0.00 | 71 | 1012.7 |
| 20260507101543 | 2 | 197 | 0.0 | 3.2 | 0.00 | 0.00 | 0.00 | 66 | 1012.8 |
| 20260507100036 | 2 | 220 | 0.0 | 3.2 | 0.00 | 0.00 | 0.00 | 64 | 1012.7 |
| 20260507094540 | 3 | 244 | 0.0 | 1.6 | 0.00 | 0.00 | 0.00 | 66 | 1012.9 |
| 20260507093034 | 3 | 245 | 0.0 | 3.2 | 0.00 | 0.00 | 0.00 | 63 | 1013.0 |
| 20260507091628 | 3 | 225 | 3.2 | 8.0 | 0.00 | 0.00 | 0.00 | 64 | 1012.9 |
| 20260507090057 | 3 | 257 | 1.6 | 6.4 | 0.00 | 0.00 | 0.00 | 65 | 1012.9 |
| 20260507084556 | 3 | 171 | 3.2 | 6.4 | 0.00 | 0.00 | 0.00 | 65 | 1013.0 |
| 20260507083053 | 4 | 193 | 0.0 | 1.6 | 0.00 | 0.00 | 0.00 | 63 | 1013.1 |
| 20260507081552 | 3 | 197 | 0.0 | 3.2 | 0.00 | 0.00 | 0.00 | 65 | 1013.1 |
| 20260507080051 | 3 | 165 | 1.6 | 3.2 | 0.00 | 0.00 | 0.00 | 63 | 1013.1 |
| 20260507074552 | 4 | 217 | 1.6 | 4.8 | 0.00 | 0.00 | 0.00 | 62 | 1013.1 |
| 20260507073021 | 5 | 204 | 0.0 | 1.6 | 0.00 | 0.00 | 0.00 | 60 | 1013.2 |
| 20260507071519 | 5 | 204 | 0.0 | 1.6 | 0.00 | 0.00 | 0.00 | 60 | 1013.4 |
| 20260507070051 | 5 | 204 | 0.0 | 3.2 | 0.00 | 0.00 | 0.00 | 61 | 1013.5 |
| 20260507064548 | 5 | 209 | 0.0 | 1.6 | 0.00 | 0.00 | 0.00 | 60 | 1013.7 |
| 20260507063048 | 4 | 209 | 0.0 | 3.2 | 0.00 | 0.00 | 0.00 | 64 | 1013.7 |
| 20260507061542 | 5 | 15 | 0.0 | 3.2 | 0.00 | 0.00 | 0.00 | 63 | 1013.7 |
| 20260507060050 | 4 | 15 | 0.0 | 0.0 | 0.00 | 0.00 | 0.00 | 64 | 1013.9 |
| 20260507054547 | 3 | 15 | 0.0 | 3.2 | 0.00 | 0.00 | 0.00 | 68 | 1014.0 |
| 20260507053040 | 2 | 297 | 0.0 | 1.6 | 0.00 | 0.00 | 0.00 | 68 | 1013.9 |
| 20260507051535 | 3 | 297 | 0.0 | 1.6 | 0.00 | 0.00 | 0.00 | 66 | 1013.9 |
| 20260507050032 | 3 | 221 | 0.0 | 1.6 | 0.00 | 0.00 | 0.00 | 67 | 1014.0 |
| 20260507044546 | 4 | 221 | 0.0 | 1.6 | 0.00 | 0.00 | 0.00 | 65 | 1014.1 |
| 20260507043026 | 3 | 220 | 0.0 | 1.6 | 0.00 | 0.00 | 0.00 | 68 | 1014.2 |
| 20260507041523 | 3 | 220 | 0.0 | 1.6 | 0.00 | 0.00 | 0.00 | 67 | 1014.4 |
| 20260507040029 | 3 | 220 | 0.0 | 1.6 | 0.00 | 0.00 | 0.00 | 67 | 1014.5 |
| 20260507034520 | 3 | 220 | 0.0 | 1.6 | 0.00 | 0.00 | 0.00 | 63 | 1014.5 |
| 20260507033049 | 4 | 220 | 0.0 | 1.6 | 0.00 | 0.00 | 0.00 | 62 | 1014.5 |
| 20260507031547 | 3 | 220 | 0.0 | 1.6 | 0.00 | 0.00 | 0.00 | 64 | 1014.6 |
| 20260507030045 | 4 | 209 | 1.6 | 4.8 | 0.00 | 0.00 | 0.00 | 62 | 1014.7 |
| 20260507024549 | 5 | 211 | 1.6 | 3.2 | 0.00 | 0.00 | 0.00 | 60 | 1014.7 |
| 20260507023038 | 5 | 217 | 1.6 | 4.8 | 0.00 | 0.00 | 0.00 | 58 | 1014.7 |